STARLINK-35576 (66137 NORAD) Tracking and Keplerian Element Data

This shows tracking and keplerian element data for the satellite.

Feedback or suggestion? Click here.




ElementValue
Catalog66137
NameSTARLINK-35576
Epoch Orbit1039
Epoch Day354.17875593
Epoch Year2025
RAAN52.0205
Inclination53.1601
Eccentricity0.0001384
Argument of Perigee96.4301
Mean Anonmoly263.6862
Mean Motion15.39684803
Decay Rate0.00096715
L11 66137U 25237Z 25354.17875593 .00096715 00000+0 23922-2 0 9993
L22 66137 53.1601 52.0205 0001384 96.4301 263.6862 15.39684803 10397



Live tracking and technical data element details for STARLINK-35576 (NORAD 66137). STARLINK-35576 can be tracked NOW for your location showing map with azimuth and elevation plus other details from your city location.







IsCatalogInMostPopularTable: catalog: 66137, numindb: 4
Update: records affected: 1



GetName: 66137 STARLINK-35576

Hit Count: updated at: Mon, 09 Feb 2026 08:39:50 GMT